Tracking 17631 objects as of 6-May-2016
HD Live streaming from Space Station
objects crossing your sky now

THORAD AGENA D DEB

Track THORAD AGENA D DEB now!
10-day predictions


NORAD ID: 4935
Int'l Code: 1970-025GB
Perigee: 912.8 km
Apogee: 1,009.6 km
Inclination: 99.9 °
Period: 104.1 minutes
Semi major axis: 7332 km
RCS: 0.0346 m2 (small)
Launch date: April 8, 1970
Source: United States (US)
Launch site: AIR FORCE WESTERN TEST RANGE (AFWTR)

Note: This is SATELLITE DEBRIS
Your satellite tracking list
Your tracking list is empty





NASA's NSSDC Master Catalog

Two Line Element Set (TLE):
1 04935U 70025GB  16125.68505709  .00000326  00000-0  33885-3 0  9991
2 04935  99.8531  16.2002 0066020 318.3107  95.7138 13.82777692306246
Source of the keplerian elements: AFSPC

N2YO: 449